TimeEST,TemperatureF,Dew PointF,Humidity,Sea Level PressureIn,VisibilityMPH,Wind Direction,Wind SpeedMPH,Gust SpeedMPH,PrecipitationIn,Events,Conditions,WindDirDegrees,DateUTC
12:53 AM,6.1,-6.0,58,29.81,10.0,West,5.8,-,N/A,,Clear,280,2013-01-02 05:53:00
1:53 AM,3.9,-6.0,64,29.83,10.0,Variable,3.5,-,N/A,,Clear,0,2013-01-02 06:53:00
2:53 AM,3.9,-7.1,60,29.82,10.0,WNW,8.1,-,N/A,,Clear,300,2013-01-02 07:53:00
3:53 AM,-0.0,-9.0,66,29.82,10.0,WNW,3.5,-,N/A,,Clear,290,2013-01-02 08:53:00
4:53 AM,-2.9,-8.0,79,29.83,10.0,Calm,Calm,-,N/A,,Clear,0,2013-01-02 09:53:00
5:53 AM,-0.0,-8.0,69,29.82,10.0,NNW,3.5,-,N/A,,Clear,330,2013-01-02 10:53:00
6:53 AM,3.0,-8.0,60,29.83,10.0,West,6.9,-,N/A,,Partly Cloudy,280,2013-01-02 11:53:00
7:53 AM,3.9,-7.1,60,29.84,10.0,West,3.5,-,N/A,,Clear,260,2013-01-02 12:53:00
8:53 AM,6.1,-6.0,58,29.84,10.0,Variable,6.9,-,N/A,,Clear,0,2013-01-02 13:53:00
9:53 AM,9.0,-5.1,53,29.85,10.0,West,11.5,17.3,N/A,,Clear,280,2013-01-02 14:53:00
10:53 AM,10.9,-4.0,51,29.84,10.0,NW,12.7,20.7,N/A,,Partly Cloudy,310,2013-01-02 15:53:00
11:53 AM,10.9,-4.0,51,29.83,10.0,NW,17.3,25.3,N/A,,Partly Cloudy,320,2013-01-02 16:53:00
12:53 PM,12.9,-5.1,45,29.83,10.0,WNW,13.8,29.9,N/A,,Partly Cloudy,300,2013-01-02 17:53:00
1:53 PM,12.0,-7.1,42,29.82,10.0,WNW,13.8,25.3,N/A,,Partly Cloudy,300,2013-01-02 18:53:00
2:53 PM,10.9,-8.0,42,29.85,10.0,WNW,12.7,24.2,N/A,,Clear,300,2013-01-02 19:53:00
3:53 PM,10.0,-9.0,42,29.87,10.0,West,12.7,18.4,N/A,,Clear,280,2013-01-02 20:53:00
4:53 PM,8.1,-9.0,46,29.91,10.0,WNW,13.8,24.2,N/A,,Clear,300,2013-01-02 21:53:00
5:53 PM,6.8,-9.4,48,29.92,10.0,WNW,12.7,18.4,N/A,,Clear,290,2013-01-02 22:53:00
6:53 PM,3.9,-9.9,53,29.96,10.0,WNW,15.0,21.9,N/A,,Clear,290,2013-01-02 23:53:00
7:53 PM,1.9,-11.0,55,29.97,10.0,WNW,9.2,-,N/A,,Clear,300,2013-01-03 00:53:00
8:53 PM,1.0,-11.0,57,29.98,10.0,WNW,11.5,24.2,N/A,,Clear,300,2013-01-03 01:53:00
9:53 PM,1.0,-11.0,57,29.98,10.0,WNW,11.5,-,N/A,,Clear,300,2013-01-03 02:53:00
10:53 PM,1.0,-11.0,57,29.99,10.0,WNW,10.4,17.3,N/A,,Clear,300,2013-01-03 03:53:00
11:53 PM,-0.0,-11.0,60,30.00,10.0,WNW,9.2,-,N/A,,Clear,300,2013-01-03 04:53:00